Regional Weather Roundup
Issued by NWS Jackson, KY

Home | Current Version | Previous Version | Text Only | Print | Product List | Glossary On
Versions: 1 2 3 4 5 6 7 8 9 10 11 12 13 14 15 16 17 18 19 20 21 22 23 24 25 26 27 28 29 30 31 32 33 34 35 36 37 38 39 40 41 42 43 44 45 46 47 48 49 50
000
ASUS43 KJKL 230210
RWRJKL

EAST KENTUCKY HOURLY WEATHER ROUNDUP
NATIONAL WEATHER SERVICE JACKSON KY
1000 PM EDT TUE AUG 22 2017

NOTE: "FAIR" INDICATES FEW OR NO CLOUDS BELOW 12,000 FEET WITH
NO SIGNIFICANT WEATHER AND/OR OBSTRUCTIONS TO VISIBILITY.

* THESE REPORTS ARE NOT UNDER NWS QUALITY CONTROL AND MAY NOT
  REPORT WEATHER SUCH AS PRECIPITATION AND FOG.

KYZ079-080-083-085-087-088-110-112-115-119-120-230300
...EASTERN KENTUCKY...

CITY           SKY/WX    TMP DP  RH WIND       PRES   REMARKS
JACKSON        LGT RAIN  71  69  93 VRB3      29.99S
LONDON         RAIN      72  69  90 N16       29.99R FOG
SOMERSET*      TSTM      70  70 100 N7        29.99R
MONTICELLO*    TSTM      72  72 100 NW13G20   30.02R
WILLIAMSBURG*  CLOUDY    75  73  94 CALM      29.97R
MIDDLESBORO*   CLOUDY    72  72 100 CALM      29.98F
HARLAN APT*    CLOUDY    72  70  94 CALM      30.01F VSB 1
PIKE CO APT*   CLOUDY    71  71 100 CALM      29.99S
BIG SANDY APT* LGT RAIN  72  72 100 CALM      29.99S
MOREHEAD APT*  CLOUDY    70  68  94 S3        29.97F FOG
$$

KYZ035-036-041-042-044-050-067-078-099-230300
...CENTRAL KENTUCKY...

CITY           SKY/WX    TMP DP  RH WIND       PRES   REMARKS
MT STERLING*   CLOUDY    70  70 100 SW6       29.99S
FLEMING/MASON* MOCLDY    70  70 100 SW5       29.97R
DANVILLE*      CLOUDY    70  70 100 NE5       29.98F
LEXINGTON      CLOUDY    72  69  90 SW5       29.97S
FRANKFORT      CLOUDY    72  68  87 SW3       29.95R
LOUISVILLE     CLOUDY    73  71  93 W6        29.95R
LEBANON*         N/A     72  68  88 CALM      29.97R
GLASGOW*       MOCLDY    73  73 100 CALM      29.97S
BOWLING GREEN  CLOUDY    75  73  93 NW3       29.97R
$$

KYZ091>093-OHZ055-061-077-WVZ005-015-034-035-042-230300
...SOUTHERN OHIO/WEST VIRGINIA...

CITY           SKY/WX    TMP DP  RH WIND       PRES   REMARKS
COVINGTON      CLOUDY    72  72 100 SW3       29.94R
COLUMBUS       PTCLDY    75  68  78 W9        29.90R
DAYTON         CLOUDY    71  64  78 NW8       29.95R
WILMINGTON     PTCLDY    73  69  87 W7        29.93R
HUNTINGTON     CLOUDY    73  71  93 SW6       29.95R
CHARLESTON     LGT RAIN  73  70  90 SW8       29.95S
PINEVILLE*     CLOUDY    72  71  96 MISG      30.05F FOG
BECKLEY        RAIN      70  67  90 SW5       30.05R FOG
BLUEFIELD      CLOUDY    72  62  71 NW6       30.07S
LOGAN CO APT*  CLOUDY    73  70  88 CALM      29.98F
$$

VAZ002-007-008-TNZ017-027-036-066-071-230300
...SOUTHWEST VIRGINIA/EAST TENNESSEE...

CITY           SKY/WX    TMP DP  RH WIND       PRES   REMARKS
WISE*          CLOUDY    72  72 100 CALM      30.08S
JONESVILLE*      N/A     73  72  94 CALM      30.01S
ABINGDON*      MOCLDY    75  69  81 CALM      30.03S
BRISTOL        PTCLDY    75  66  73 CALM      30.00R
MORRISTOWN*    MOCLDY    79  68  69 SW3       29.97S
SEVIERVILLE*   CLEAR     77  64  65 CALM      29.96S
KNOXVILLE      MOCLDY    80  67  64 SW10      29.96R
LAFOLLETTE*    PTCLDY    73  72  94 CALM      30.00R
OAK RIDGE      CLOUDY    81  68  64 CALM      29.97
CROSSVILLE     PTCLDY    76  67  73 SW5       30.03S
NASHVILLE      CLOUDY    75  73  93 SW6       29.98S
$$

...KEY TO REMARKS...
VSB - VISIBILITY IN MILES
WCI - WIND CHILL INDEX
HX  - HEAT INDEX

$$



USA.gov is the U.S. government's official web portal to all federal, state and local government web resources and services.